All Buildings
Daily Schedule - 12/11/2018 4:24:26 AM
 
CID
Course Name
Begin Time
End Time
Instructor
Building
Room
DR1514(A) Alexander Technique 2.1 08:00 09:59 Reynolds, C. J. 109
LC1467(L) WTEI: Love and Death 08:00 09:40 Corcoran, L. R. 65 W. 11th 465
LC1643(P) WTEI: The Faith Between Us 08:00 09:40 Korb, S. M. 65 W. 11th 458
LC2137(A) Intro to Ballet Practices 08:00 09:30 Carpenter, M. A. Off Campus -
LC4018(W) WTEI: Life/Science & the Exper 08:00 09:40 Menon, T. 65 W. 11th 262
LC4021(Y) WTEI: Writing on the Verge 08:00 09:40 Gladstone, B. L. 65 W. 11th 261
LC4551(A) Ballet Practices 08:00 09:30 Pyle, K. B. Off Campus -
LC8053(A) Black Thinkers 08:00 09:40 Lande, J. 65 W. 11th 464
LC8403(FF) WTEI: Identity: What is it? 08:00 09:40 Strouse, A. W. 66 W. 12th 509
MC4090(B) Piano Class 1A 08:00 08:50 Gustafson, W. 55 W. 13th 645
DR1141(A) Speech 1 08:10 09:50 Cameron, S. 55 W. 13th 106
NS7933(A) Financial Bubbles 08:20 09:50 TBA 79 Fifth Ave. 908
NS7936(A) Great Conversations 08:20 09:50 TBA 79 Fifth Ave. 913
LC2923(F) Quant. Reasoning 1 08:30 09:45 Bollon, S. A. 65 W. 11th 050
MC4137(A) Theory 2A 08:35 09:50 Smith, S. W. 55 W. 13th 309
MC4138(B) Theory 2A 08:35 09:50 Rogers, L. 55 W. 13th 353
MC6732(C) Theory 2A 08:35 09:50 Prosser, S. K. S. 55 W. 13th 307
DR3077(A) Dramatic Structure and Style 1 09:00 10:15 Katz, A. E. 55 W. 13th 901
DR3078(B) Dramatic Structure and Style 1 09:00 10:15 Rivera-Tirado, C. L. 55 W. 13th 905
DR3083(C) Foundations in Acting 09:00 11:20 Boyd, J. 55 W. 13th 907
DR3083(C) Foundations in Acting 09:00 11:20 Clark, C. E. 55 W. 13th 907
DR3083(C) Foundations in Acting 09:00 11:20 Quezada, A. 55 W. 13th 907
DR4565(D) Foundations in Acting 09:00 11:20 Quezada, A. 55 W. 13th 908
DR4565(D) Foundations in Acting 09:00 11:20 Reid, D. M. 55 W. 13th 908
DR4565(D) Foundations in Acting 09:00 11:20 Clark, C. E. 55 W. 13th 908
DR5574(A) CT 2: Performance & Technology 09:00 11:29 Cusick, W. 55 W. 13th 400
DR5574(A) CT 2: Performance & Technology 09:00 11:29 Cusick, W. 55 W. 13th 804
JZ6738(B) Ear Training 1 09:00 09:50 Blake, D. A. 55 W. 13th 618
LC3303(A) Intro to Cinematography 09:00 11:40 Fitch, N. W. 55 W. 13th 821
LC3698(AX) Senior Thesis Seminar 09:00 11:40 Mehlman-Petrzela, N. Y. 79 Fifth Ave. 734
MC4086(A) Theory 1A Intensive 09:00 09:50 Park, C. W. 55 W. 13th 710
MC4093(A) Theory 1A 09:00 09:50 Shironishi, R. 55 W. 13th 453
MC4145(A) Theory 3A 09:00 09:50 Cuckson, R. 55 W. 13th 314
MC4197(A) Dictation 1A 09:00 09:50 Groves, M. R. 55 W. 13th 308
MC4654(B) Theory 1A 09:00 09:50 Lee, C. 55 W. 13th 302
MC8352(A) Baroque Chamber Players 09:00 10:50 Gustafson, W. 55 W. 13th -
MC8645(E) BR 505/Chamber 49 09:00 09:50 Wilson, N. 55 W. 13th 450
MC8647(CC) BR 505/Chamber 49 09:00 09:50 Wilson, N. 55 W. 13th 450
NS2681(H) ESL 1700 High Intermediate 09:00 11:30 Seeno, A. 66 W. 12th 615
NS2957(B) Policy Analysis 09:00 10:50 Schwartz, A. 66 W. 12th 701
NS3352(A) Academic Writing 3 09:00 11:40 Toledo, A. P. D. 66 W. 12th 601
NS3360(A) Academic Writing 4 09:00 11:40 Farhood-Karasavva, L. 66 W. 12th 517
NS3361(B) Academic Writing 4 09:00 11:40 Lovell, J. M. 66 W. 12th 502
NS3368(A) Academic Writing 5 09:00 11:40 Durk, J. L. 66 W. 12th 518
NS3374(A) Academic Writing 6 09:00 11:40 Lev, D. K. 66 W. 12th 501
NS8326(B) Academic Writing 3 09:00 11:40 Murphy, E. 66 W. 12th 513
NS8392(C) Academic Writing 4 09:00 11:40 Fischer, B. E. 66 W. 12th 609
PS1502(A) ID Studio 2 09:00 11:40 Wendell, A. 79 Fifth Ave. 708
PS1502(A) ID Studio 2 09:00 11:40 Molloy, J. 79 Fifth Ave. 708
PS2698(A) Urban Ecologies Methods 1 09:00 11:40 Bakalarz-Duverger, M. 79 Fifth Ave. 515
PS3096(A) Task Time 09:00 21:40 TBA 79 Fifth Ave. 506
PS3097(F) Task Time 09:00 21:40 TBA 79 Fifth Ave. 429
PS3123(A07) Space/Materiality: Body 09:00 11:40 Carter, J. P. 2 W. 13th 612
PS3187(A) Representation and Analysis 09:00 11:40 Kim, J. H. 2 W. 13th L107
PS3417(K) Task Time 09:00 21:40 TBA 2 W. 13th 430
PS4869(B) Financial Management 09:00 11:40 Michud, V. R. 2 W. 13th 417
PS5430(A) Typography and Interaction 1 09:00 11:40 Heftmann, J. D. V. 2 W. 13th 1006
PS7771(B) Visual Culture Seminar 09:00 11:40 Hockin, T. B. 66 Fifth Ave. 710
PS7883(A) Interactive Design for Museums 09:00 11:40 Deen, A. J. 66 Fifth Ave. 312
PS7968(A13) Space/Materiality: Body 09:00 11:40 Shulem, A. M. 2 W. 13th 503
PS7997(B18) Drawing/Imaging: People 09:00 11:40 Vote, M. 2 W. 13th 600
PS8003(B14) Space/Materiality: Community 09:00 11:40 Wong, M. L. 2 W. 13th 811
PS8006(A18) Drawing/Imaging: Language 09:00 11:40 Lepson, M. A. 2 W. 13th 303
PS8014(C) Typography 1 09:00 11:40 Witherell, K. 79 Fifth Ave. 1202
PS8026(B05) Sustainable Systems 09:00 11:40 Mees, J. C. 25 E. 13th 201
PS8051(C) Digital Layout 09:00 11:40 Clunis, S. D. 25 E. 13th 304
DR3047(A) Writing for Television 1 09:30 11:59 Baron, C. 55 W. 13th 930
JZ7407(A) Music & Revolution 09:30 10:50 Barone, R. 55 W. 13th 350
NS7934(A) Martha Gelhorn: War Correspond 09:55 11:25 TBA 79 Fifth Ave. 703
NS7935(A) Trump: Legal & Policy Issues 09:55 11:25 TBA 79 Fifth Ave. 903
CO4442(A) Marketing & PR for the Arts 10:00 12:30 Wong, W. 79 Fifth Ave. L101
DR1017(A) Contemporary Technique 1 10:00 12:40 Rossetter, K. M. 79 Fifth Ave. 106
DR1017(A) Contemporary Technique 1 10:00 12:40 Bjerken, T. L. 79 Fifth Ave. 106
DR1142(A) Playwriting 1.1 10:00 12:55 DeLappe, S. E. 79 Fifth Ave. 105
DR3403(D) Portfolio 3: Dramaturgy/Design 10:00 11:40 Morris, E. T. 55 W. 13th 909
JZ2619(A) Sight-Reading Reeds 1A 10:00 10:50 Snidero, J. J. 55 W. 13th 624
JZ5446(B) Ear Training 5 10:00 10:50 Boukas, R. 55 W. 13th 314
JZ5449(A) Ear Training 6 10:00 10:50 Weidenmueller, J. 55 W. 13th 623
JZ6739(C) Ear Training 1 10:00 10:50 Luthra, A. D. 55 W. 13th 618
JZ6741(D) Ear Training 1 10:00 10:50 Arita, J. 55 W. 13th 616
JZ7733(A) Piano 1 10:00 10:50 Bianchi, J. J. 55 W. 13th 645
LC1202(C) WTEI: The Loss of Oneself 10:00 11:40 Gross, J. R. 79 Fifth Ave. 1003
LC1205(K) WTEI: Adventures in Boredom 10:00 11:40 Romig, R. T. 79 Fifth Ave. 1104
LC1663(A) Intro Non-Fiction 10:00 11:40 Brooks, C. R. 79 Fifth Ave. 901
LC1664(A) Intro Fiction 10:00 11:40 Gerrard, D. B. 66 W. 12th 618
LC1731(B) WTEII: Immigrant Voices 10:00 11:40 Breydo, O. 560 Seventh Ave. 602
LC1953(B) Intro Poetry 10:00 11:40 Barizo, J. M. 79 Fifth Ave. 908
LC1990(M) WTEI: Feminism in Non-Western 10:00 11:40 Singiresu, S. 79 Fifth Ave. 705
LC2082(AX) Senior Seminar: Fiction 10:00 11:40 Deb, S. 65 W. 11th 354C
LC2138(A) Ballet Practices Cont 10:00 11:30 Roth, J. P. Off Campus -
LC2628(A) Hist of Econ Thought 10:00 11:40 Dunn, M. 79 Fifth Ave. 1101
LC2919(A) Fund. of Cognitive Neuro 10:00 11:40 Brown, A. D. 79 Fifth Ave. 1009
LC3342(A) News, Narrative & Design II 10:00 11:40 Gregory, K. T. 65 W. 11th 464
LC3454(Q) WTEI: Writing Toward Inclusion 10:00 11:40 Sanders, J. 79 Fifth Ave. 904
LC3460(S) WTEI:Family,Identity&Justice 10:00 11:40 Agabian, N. 79 Fifth Ave. 902
LC3461(T) WTEI: The Poet's Prose 10:00 11:40 Steinmetz, K. M. 66 W. 12th 509
LC3512(C) News, Narrative & Design I 10:00 11:40 Eskin, B. D. 65 W. 11th 465
LC3661(A) Exhibitions as History 10:00 11:40 Lubin-Levy, J. D. 65 W. 11th 262
LC3663(A) Foundations of World Theater 10:00 11:40 Abrash, V. 79 Fifth Ave. 704
LC3845(A) Aesthetics Across the Arts 10:00 11:40 Raykoff, I. 66 W. 12th 510
LC3871(A) Intro. to English Poetry 10:00 11:40 Savory, E. 65 W. 11th 261
LC4033(A) Heterodox Identities 10:00 11:40 Lee, O. 65 W. 11th 263
LC5247(A) Music and Gender 10:00 11:40 Scherbenske, A. L. 55 W. 13th 613
LC5563(A) Chemistry of the Atmosphere 10:00 11:40 Venkataraman, B. K. 65 W. 11th 459
LC7026(A) Fund. of Abnormal Psychology 10:00 11:40 D'Andrea, W. M. 66 W. 12th 407
LC7216(A) African-Amer Drama Since 1970 10:00 11:40 Silsby, C. E. 79 Fifth Ave. 1200B
LC7232(A) Global Environmental History 10:00 11:40 Jakes, A. G. 79 Fifth Ave. 204
LC7279(G) FYS: The Essays of Zadie Smith 10:00 11:40 Korb, S. M. 79 Fifth Ave. 205
LC7280(H) FYS: Race & Photographic Image 10:00 11:40 Walsh, L. M. 79 Fifth Ave. L106
LC7374(Q) FYS: Bio, Art & Social Justice 10:00 11:40 Chamany, K. 79 Fifth Ave. 618
LC7379(U) FYS: Plato's Republic 10:00 11:40 Dodd, J. E. 72 Fifth Ave. 713
LC7395(Z) FYS: Urban Problems & Actions 10:00 11:40 Mahs, R. J. V. 79 Fifth Ave. 913
LC7398(A) The Buddha's Revolution 10:00 11:40 Kelley, C. D. 65 W. 11th 458
LC7413(A) Composition Workshop 10:00 11:40 Kenessey, S. d. 66 W. 12th 002
LC7477(A) Modern International Society 10:00 11:40 Bruneau, Q. 79 Fifth Ave. 911
LC7484(B) Acting Fund.:Embodied Perf. 10:00 11:40 Hess, D. 66 W. 12th 001
LC7735(A) Technologies of Reproduction 10:00 11:40 Greenspan, R. 79 Fifth Ave. 1102
LC7894(A) Capitalism and Its Futures 10:00 11:40 Caliskan, K. 79 Fifth Ave. 1001
LC7916(A) Lit of Morrison & Baldwin 10:00 11:40 Blint, R. 79 Fifth Ave. 202
MC4087(A) Ear Training 1A Intensive 10:00 10:50 Nemhauser, F. L. 55 W. 13th 711
MC4131(A) Ear Training 1A 10:00 10:50 Griffiths, W. 55 W. 13th 307
MC4146(B) Ear Training 3A 10:00 10:50 Mitsel, R. 55 W. 13th 308
MC4150(A) Keyboard 2A 10:00 10:50 Cuckson, R. 55 W. 13th 717
MC4190(A) Dictation 4A 10:00 10:50 Groves, M. R. 55 W. 13th 644
MC4193(A) 1 Semester Theory Review 10:00 11:15 Rogers, L. 55 W. 13th 353
MC4195(A) Full Year Theory Review A 10:00 10:50 Smith, S. W. 55 W. 13th 309
MC4644(B) 1 Semester Theory Review 10:00 11:15 Shapira, Y. M. 55 W. 13th 302
MC4656(D) Ear Training 2A 10:00 10:50 Shironishi, R. 55 W. 13th 710
MC6730(C) 1 Semester Theory Review 10:00 11:15 Prosser, S. K. S. 55 W. 13th 453
MC7991(C) Keyboard 1A 10:00 10:50 Lee, C. 55 W. 13th 714
MC8603(X3) NMM 499/Chamber 43 10:00 10:50 Shapiro, M. 55 W. 13th 716
MC8604(X3) NMM 499/Chamber 43 10:00 10:50 Shapiro, M. 55 W. 13th 716
MC8642(E) BR 506/Chamber 50 10:00 10:50 Wilson, N. 55 W. 13th 450
MC8646(F) BR 506/Chamber 50 10:00 10:50 Wilson, N. 55 W. 13th 450
NS2087(A) Urban Ecology 10:00 11:40 Cook, E. M. 66 W. 12th 406
NS2676(A) ESL1650 Communication Skills 10:00 11:50 Kwon, C. K. 66 W. 12th 716
NS4781(A) Senior Seminar Fall 10:00 11:40 Bendiner-Viani, G. 55 W. 13th 803
NS6777(B) ESL1650 Communication Skills 10:00 11:50 Jaucian, K. A. 79 Fifth Ave. 1108
PS7972(A) Major Studio 1 10:00 15:40 Zhang, Y. 2 W. 13th 701
PS7972(A) Major Studio 1 10:00 15:40 Kang, S. 2 W. 13th 701
PS7972(A) Major Studio 1 10:00 15:40 Millington, A. 2 W. 13th 701
PS7972(A) Major Studio 1 10:00 15:40 Gopinath, P. 2 W. 13th 701
PS7972(A) Major Studio 1 10:00 15:40 Asfour, G. J. 2 W. 13th 701
PS7972(A) Major Studio 1 10:00 15:40 Sherzer, R. 2 W. 13th 701
DR3050(A) Scene Study 1 10:10 12:59 Reynolds, C. J. 2 W. 13th 109
DR3050(A) Scene Study 1 10:10 12:59 Fernandez, P. J. 2 W. 13th 109
LC1319(A) Intro to Media Studies 10:15 11:30 Levitt, D. 2 W. 13th L104
LC1992(A) Intro to Screen Studies 10:15 11:30 Isenberg, N. 66 W. 12th 404
LC2920(C) Quant. Reasoning 1 10:15 11:30 Bollon, S. A. 66 W. 12th 201
LC3529(B) Quant. Reasoning II: QRM+DV 10:15 11:30 Flek, R. 65 W. 11th 050
NS3847(A) German Intro 1 10:15 11:30 Brueckheimer, R. L. 66 W. 12th 702
NS3855(A) Conversational Japanese 10:15 11:30 Kishimoto, I. 55 W. 13th 805
NS7504(A) Chinese Intro 2 10:15 11:30 Lai, T. Y. 66 W. 12th 713
DR4449(A) Actor & Musical Theater 1 11:00 12:40 Baker, J. L. 55 W. 13th 901
DR4449(A) Actor & Musical Theater 1 11:00 12:40 Miller-Valles, T. 55 W. 13th 901
DR5412(A) Continuum 1 11:00 14:00 Patten, C. 55 W. 13th 207
DR7359(C) Intermediate Acting 1 11:00 13:30 Correia, A. 55 W. 13th 905
JZ1043(A) Sight-Reading Reeds 2A 11:00 11:50 Snidero, J. J. 55 W. 13th 624
JZ1053(A) Linear Composition/Improvisors 11:00 12:50 Bloom, J. I. 55 W. 13th 521
JZ5444(B) Ear Training 4 11:00 11:50 Luthra, A. D. 55 W. 13th 307
JZ5445(A) Ear Training 5 11:00 11:50 Boukas, R. 55 W. 13th 314
JZ5448(D) Ear Training 5 11:00 11:50 Lopato, D. P. 55 W. 13th 618
JZ5450(B) Ear Training 6 11:00 11:50 Weidenmueller, J. 55 W. 13th 623
JZ7271(A) Ear Training 2 11:00 11:50 Arita, J. 55 W. 13th 308
JZ7272(A) Smalls Live 11:00 12:20 Wilner, M. J. 55 W. 13th 350
JZ7729(C) Piano 2 11:00 11:50 Bianchi, J. J. 55 W. 13th 645
MC4085(A) ET/Dictation Fundamentals 1A 11:00 11:50 Griffiths, W. 55 W. 13th 304
MC4088(A) Dictation 1A Intensive 11:00 11:50 Nemhauser, F. L. 55 W. 13th 709
MC4194(A) Techs of the Modern Era 1A 11:00 11:50 Cuckson, R. 55 W. 13th 710
MC4198(B) Graduate Analysis 11:00 12:15 Park, C. W. 55 W. 13th 545
MC4209(A) History of Music 1A 11:00 12:15 Bell, G. 55 W. 13th 750
MC4210(A) History of Music 2A 11:00 12:15 Kidambi, A. 55 W. 13th 450
MC4658(B) Dictation 1A 11:00 11:50 Groves, M. R. 55 W. 13th 716
MC8386(B) History of Music 1A 11:00 12:15 Zamler-Carhart, S. J. 55 W. 13th 531
MC8608(X1) NMM 497/Chamber 41 11:00 11:50 Shapiro, M. 55 W. 13th 711
MC6731(A) Graduate Analysis 11:30 12:45 Shapira, Y. M. 55 W. 13th 302
LC1089(A) Acting Fundamentals 11:55 13:35 Rubino, C. L. 66 W. 12th 001
LC1204(H) WTEI: The Retrospectoscope 11:55 13:35 Bouslaugh, B. M. 79 Fifth Ave. 904
LC1662(A) RFW Fiction: Global Novel 11:55 13:35 Deb, S. 72 Fifth Ave. 713
LC1666(A) Intermediate Fiction 11:55 13:35 Bertino, M. 79 Fifth Ave. 1006
LC1684(A) RFW Poetry 11:55 13:35 Xu, W. 79 Fifth Ave. 909
LC1698(A) Hebrew Bible:TalesofRebellion 11:55 13:35 Snyder, F. A. 66 W. 12th 501
LC1944(G) WTEI: The Poet's Prose 11:55 13:35 Steinmetz, K. M. 66 W. 12th 618
LC2625(B) Intermediate Non-Fiction 11:55 13:35 Brooks, C. R. 79 Fifth Ave. 1008
LC3662(A) Architecture without Architect 11:55 13:35 Ruiz, A. C. 66 W. 12th 702
LC3873(B) Intro Non-Fiction 11:55 13:35 Kendall, E. 65 W. 11th 259
LC3881(D) News, Narrative & Design I 11:55 13:35 Eskin, B. D. 65 W. 11th 465
LC3882(B) News, Narrative & Design II 11:55 13:35 Gregory, K. T. 65 W. 11th 464
LC5304(A) Feminism, Queer Theory, Arts 11:55 13:35 Lubin-Levy, J. D. 65 W. 11th 262
LC5584(A) Psychology & Social Policy 11:55 13:35 Jassin, K. A. 66 W. 12th 407
LC7005(A) Intermediate Macroeconomics 11:55 13:35 Schoder, C. 66 W. 12th 409
LC7018(A) Politics of Consumption 11:55 13:35 Molnar, V. 79 Fifth Ave. 1001
LC7089(A) Plato & the Sophists 11:55 13:35 Arruzza, C. 65 W. 11th 260
LC7140(A) Sound and Sexual Politics 11:55 13:35 Dublon, A. E. 66 W. 12th 002
LC7209(A) Contemporary Drama 11:55 13:35 Word, R. C. 79 Fifth Ave. 912
LC7224(A) Global Cont Novel:After Empire 11:55 13:35 Blint, R. 66 W. 12th 406
LC7227(A) 18th Century British Fiction 11:55 13:35 Berman, C. V. 66 W. 12th 716
LC7261(B) FYS: Black Mirror 11:55 13:35 Scholz, R. 66 W. 12th L106
LC7313(A) Underground Music Scenes 11:55 13:35 Blake, D. A. 66 W. 12th 300
LC7375(R) FYS: The Simulation Games 11:55 13:35 Yust, A. E. 66 W. 12th 205
LC7388(X) FYS: Spiritual Autobiography 11:55 13:35 Kurs, K. 65 W. 11th 261
LC7391(Y) FYS: Iconic Events in Media 11:55 13:35 Sonnevend, J. 66 W. 12th 701
LC7738(AA) FYS: Toilets Change the World 11:55 13:35 Smyth, D. 66 W. 12th 618
LC7742(A) International Economics 11:55 13:35 Dunn, M. 79 Fifth Ave. 1101
NS7110(A) Env Hist, Race & Resource Mgmt 11:55 13:35 White, M. C. 66 W. 12th 715
DR3073(A) Global Dramatic Literature 1 12:00 13:15 Reid, D. M. 55 W. 13th 353
DR3074(B) Global Dramatic Literature 1 12:00 13:15 Vena, G. 55 W. 13th 908
DR3404(E) Portfolio 3: Dramaturgy/Design 12:00 13:40 Morris, E. T. 55 W. 13th 909
GF3861(A) French Reading Group 12:00 13:50 Nikulin, D. V. 66 W. 12th 617
GF5521(A) Boundaries and Belonging 12:00 13:50 Morris, J. 79 Fifth Ave. 1107
GF5521(A) Boundaries and Belonging 12:00 13:50 Aleinikoff, T. A. 79 Fifth Ave. 1107
GF8448(A) Boundaries and Belonging 12:00 13:50 Morris, J. Off Campus -
GF8448(A) Boundaries and Belonging 12:00 13:50 Aleinikoff, T. A. Off Campus -
JZ1034(A) Sight-Reading Guitar 1A 12:00 12:50 MacEachen, E. 55 W. 13th 624
JZ1044(A) Sight-Reading Guitar 2A 12:00 12:50 Boukas, R. 55 W. 13th 613
JZ5441(B) Ear Training 3 12:00 12:50 Arita, J. 55 W. 13th 308
JZ5442(C) Ear Training 3 12:00 12:50 Weidenmueller, J. 55 W. 13th 623
JZ5443(A) Ear Training 4 12:00 12:50 Lopato, D. P. 55 W. 13th 618
JZ5447(C) Ear Training 5 12:00 12:50 Luthra, A. D. 55 W. 13th 307
JZ8343(C) Piano 1 12:00 12:50 Bianchi, J. J. 55 W. 13th 645
LC2924(G) Quant. Reasoning 1 12:00 13:15 Park, J. 65 W. 11th 050
LC3309(B) Calculus I 12:00 13:15 Flek, R. 65 W. 11th 202
LC3876(A) Contemporary Dance Prac, Cont 12:00 13:30 Spence, S. M. Off Campus -
MC4200(A) Score Reading 1A 12:00 12:50 Cuckson, R. 55 W. 13th 710
MC8021(B) Score Reading 1A 12:00 12:50 Lee, C. 55 W. 13th 709
MC8573(F1) WW 478/Chamber 22 12:00 12:50 Krakauer, D. 55 W. 13th 716
MC8600(X4) NMM 500/Chamber 44 12:00 12:50 Shapiro, M. 55 W. 13th 309
NS3412(A) Conversational Spanish 12:00 13:15 Romero, I. 79 Fifth Ave. 913
NS3819(D) French Intro 1 12:00 13:15 Partovi, S. 66 W. 12th 502
NS3822(A) Arabic Intro 1 12:00 13:15 Tannous, K. 66 W. 12th 201
NS3844(A) Japanese Intro 2 12:00 13:15 Sourial, N. 66 W. 12th 518
NS4492(C) Japanese Intro 1 12:00 13:15 Serrano, N. 66 W. 12th 513
NS4709(A) Korean Intro 2 12:00 13:15 Park, S. 79 Fifth Ave. 1002
NS4713(D) Spanish Intro 1 12:00 13:15 Guzman, L. 66 W. 12th 517
NS6559(A) Boundaries and Belonging 12:00 13:50 Aleinikoff, T. A. 79 Fifth Ave. 1107
UL7594(A) Boundaries and Belonging 12:00 13:50 Aleinikoff, T. A. 79 Fifth Ave. 1107
UL7594(A) Boundaries and Belonging 12:00 13:50 Morris, J. 79 Fifth Ave. 1107
GF4484(A) Design & Future of Publishing 12:10 14:50 Cezzar, J. C. 79 Fifth Ave. 601
LC3302(A) Intro to Editing 12:10 14:50 Sanborn, K. J. 55 W. 13th 806
LC5437(AX) Facts/Alternative Facts 12:10 14:50 Schillinger, L. K. 66 W. 12th 713
LC7090(AX) Reading Greek Tragedy 12:10 14:50 Critchley, S. J. 79 Fifth Ave. 902
LC7736(AX) Screenwriting for Filmmakers 12:10 14:50 Seidelman, S. 79 Fifth Ave. 200
NS2678(B) ESL 1700 High Intermediate 12:10 14:40 Seeno, A. 66 W. 12th 601
NS7937(A) The Art of the Documentary 12:10 13:40 TBA 79 Fifth Ave. 910
NS7938(A) English Novels 19th Century 12:10 13:40 TBA 79 Fifth Ave. 906
NS7939(A) Writing Workshop 12:10 13:40 TBA 79 Fifth Ave. 901
NS7940(A) Remaking the World After WWI 12:10 13:40 TBA 79 Fifth Ave. 908
PS1360(A) Studio 1: Light, Vision & Rep 12:10 17:50 Bastianini, F. C. 25 E. 13th 200
PS1360(A) Studio 1: Light, Vision & Rep 12:10 17:50 Pappas-Kalber, A. M. 25 E. 13th 200
PS1360(A) Studio 1: Light, Vision & Rep 12:10 17:50 Shrum, G. K. 25 E. 13th 200
PS1851(A) Design Studio 1 12:10 17:50 Wexler, A. 25 E. 13th 200
PS2052(D) Creativity & Comp Lab 12:10 14:50 Mitchell, J. C. 25 E. 13th 402
PS2152(A) DS 3: Interior Design 12:10 17:50 Chapman, G. W. 2 W. 13th 1200A
PS2912(A) Design Studio 5 12:10 17:50 McGrath, B. P. 2 W. 13th 1200A
PS2912(A) Design Studio 5 12:10 17:50 Robinson, P. 2 W. 13th 1200A
PS3161(B) Design Studio 1 12:10 17:50 Crandall, D. 25 E. 13th 200
PS3188(B) Representation and Analysis 12:10 14:50 Fanou, P. 79 Fifth Ave. 701
PS3189(A) Design Studio 1 12:10 17:50 Barbour, J. M. 25 E. 13th 300
PS3190(B) Design Studio 1 12:10 17:50 David, S. 25 E. 13th 300
PS3447(C) Design Studio 1 12:10 17:50 Tsachrelia, E. 25 E. 13th 200
PS3456(D) Design Studio 1 12:10 17:50 Moss, E. D. 25 E. 13th 200
PS3457(B) Design Studio 3 12:10 17:50 Bolstad, J. 25 E. 13th 200
PS3457(B) Design Studio 3 12:10 17:50 Kassem, H. 25 E. 13th 200
PS3457(B) Design Studio 3 12:10 17:50 Meyer, W. W. 25 E. 13th 200
PS3609(B) Environmental Technology 12:10 14:50 Price, B. 25 E. 13th 206
PS3618(A) Advanced Modeling Methods 12:10 17:50 Marin, D. 66 Fifth Ave. 400
PS3618(A) Advanced Modeling Methods 12:10 17:50 Stoehr, J. 66 Fifth Ave. 400
PS3934(B) Design Studio 5 12:10 17:50 Frugiuele, C. E. 25 E. 13th 200
PS4722(A) Graduate Core: Group Crit B 12:10 14:50 Matthews, L. Off Campus -
PS4723(B) Graduate Core: Group Crit B 12:10 14:50 Selzer, S. A. Off Campus -
PS4724(C) Graduate Core: Group Crit B 12:10 14:50 Douglas, S. L. Off Campus -
PS4725(D) Graduate Core: Group Crit B 12:10 14:50 Oleson, J. Off Campus -
PS4726(E) Graduate Core: Group Crit B 12:10 14:50 Liu, J. Off Campus -
PS4843(C) Design Studio 5 12:10 17:50 Lewis, D. J. 25 E. 13th 200
PS4846(B) Advanced Modeling Methods 12:10 17:50 Bechtel, M. 66 Fifth Ave. 402
PS7345(C) Design Studio 1 12:10 17:50 Arndt, S. 25 E. 13th 300
PS7910(A) Birth of Modern Design 12:10 14:00 Lehmann, U. C. 2 W. 13th 1100
PS7969(B21) Drawing/Imaging: People 12:10 14:50 Goffstein, S. L. 2 W. 13th 802
PS7970(C21) Int Sem 1: Memory 12:10 14:50 Kurennaya, A. S. 79 Fifth Ave. 1200B
PS8001(A14) Space/Materiality: Body 12:10 14:50 Bryan, R. P. 2 W. 13th 503
PS8025(JJ) Objects as History 12:10 14:50 Elevado, M. M. 79 Fifth Ave. 1200A
PS8030(B) Fash Show: Prod and Publicity 12:10 14:50 Indelicato, T. 66 W. 12th 410
PS8383(B) DS3: Allied Arch + LD + ID 12:10 17:50 Porter, D. C. 2 W. 13th 1200B
PS8383(B) DS3: Allied Arch + LD + ID 12:10 17:50 Ackert, K. A. 2 W. 13th 1200B
PS8383(B) DS3: Allied Arch + LD + ID 12:10 17:50 Watson, W. A. 2 W. 13th 1200B
MC8039(B) Ear Training 4A 12:30 13:20 Groves, M. R. 55 W. 13th 314
DR1458(A) How Plays Work 1 13:00 15:55 Weller, M. R. 55 W. 13th 105
DR7393(A) History of Directing 13:00 14:29 London, T. 55 W. 13th 110
DR7719(A) CT 5: Adv. Projection Design 13:00 15:30 Yarden, D. 55 W. 13th 930
JZ1045(A) Sight-Reading Voice 2A 13:00 13:50 Arita, J. 55 W. 13th 307
JZ1375(A) Ensemble Placement 13:00 15:30 Coker, K. Off Campus -
JZ1739(A) Vocal Performance 1 13:00 14:50 Hardy, J. 55 W. 13th 614
JZ7630(A) 1cr Ensemble Placement 13:00 15:30 Coker, K. Off Campus -
JZ8371(F) Improvisation Ensemble - 1 cr 13:00 15:30 Cyrille, A. C. 55 W. 13th 624
MC8038(D) Graduate Analysis 13:00 14:15 Park, C. W. 55 W. 13th 302
MC8594(L1) PDU 469/Chamber 13 13:00 13:50 Zaretsky, I. 55 W. 13th 750
MC8595(L2) PDU 470/Chamber 14 13:00 13:50 Zaretsky, I. 55 W. 13th 750
MC4229(A) Performance Class: Flute 13:20 15:50 Mendenhall, J. 55 W. 13th 353
MC4229(A) Performance Class: Flute 13:20 15:50 Underwood, K. W. 55 W. 13th 353
MC4414(A) Performance Class: Flute 13:20 15:50 Underwood, K. W. 55 W. 13th 353
MC4414(A) Performance Class: Flute 13:20 15:50 Mendenhall, J. 55 W. 13th 353
DR3056(A) Grotowski 1 13:30 16:00 Fae, E. 55 W. 13th 106
MC6281(A) Fortepiano for Piano & Strings 13:30 15:10 Axinn, A. 55 W. 13th 350
MC6281(A) Fortepiano for Piano & Strings 13:30 15:10 Yang, Y. 55 W. 13th 350
GF4789(A) State, Culture, Identity 13:50 15:30 Ikegami, E. 79 Fifth Ave. 1101
GF8355(A) State, Culture, Identity 13:50 15:30 Ikegami, E. 79 Fifth Ave. 1101
LC2987(A) Culture Concept 13:50 15:30 Lee, O. 66 W. 12th 716
LC3524(A) States of Africa 13:50 15:30 Roitman, J. 66 W. 12th 701
LC3548(A) Creative Non-Fiction 13:50 15:30 Chasin, A. 65 W. 11th 260
LC3656(A) Dance Making 13:50 15:20 Garfield, K. R. Off Campus -
LC3874(C) Intro Fiction 13:50 15:30 Bandele, N. 79 Fifth Ave. 1002
LC3896(A) Practical Arts Funding 13:50 15:30 Word, R. C. 79 Fifth Ave. 913
LC4900(A) Advanced Non-Fiction 13:50 15:30 Kinney, A. L. 65 W. 11th 354C
LC4901(A) Considering Clothes 13:50 15:30 Kendall, E. 65 W. 11th 259
LC6215(A) Science, Tech, Medicine & Soc. 13:50 15:30 Park, E. F. 79 Fifth Ave. 1008
LC7087(A) Disability and Justice 13:50 15:30 Davis, E. M. 79 Fifth Ave. 1001
LC7137(A) Arts Writing Workshop 13:50 15:30 Kabat, J. A. 79 Fifth Ave. 202
LC7163(A) Arab Uprisings 13:50 15:30 Jakes, A. G. 79 Fifth Ave. L101
LC7225(A) Lit & The Environment 13:50 15:30 Savory, E. 66 W. 12th 509
LC7231(A) Attempts: The Personal Essay 13:50 15:30 Lieber, E. 66 W. 12th 406
LC7238(A) Politics, Violence, Myth 13:50 15:30 Finchelstein, F. 560 Seventh Ave. 602
LC7253(A) The Long Queer 1990s 13:50 15:30 Dublon, A. E. 65 W. 11th 465
LC7311(A) Enfleshment 13:50 15:30 Sember, R. E. 65 W. 11th 300
LC7317(A) Scene Study: American Classics 13:50 15:30 Rubino, C. L. 66 W. 12th 001
LC7336(A) Dickens 13:50 15:30 Berman, C. V. 66 W. 12th 518
LC7372(P) FYS: Civil Disobedience 13:50 15:30 Varon, J. P. 79 Fifth Ave. 912
LC7381(W) FYS: Money, Materialism, Mind 13:50 15:30 Davidai, S. 65 W. 11th 262
LC7436(A) Black Punk & Social Movements 13:50 15:30 Peterson, V. J. 79 Fifth Ave. 908
LC7473(A) Feminist Avant-garde Poetics 13:50 15:30 Firestone, J. L. 66 W. 12th 715
LC7485(A) Intro to Political Theory 13:50 15:30 Kalyvas, A. 79 Fifth Ave. 1106
LC7492(A) Encountering Rel Pluralism 13:50 15:30 Kurs, K. 65 W. 11th 261
LC7592(A) Dispute Resolution 13:50 15:30 Huestis, L. 79 Fifth Ave. 910
LC7681(A) Queer Ecologies 13:50 15:30 Davis, H. 66 W. 12th 702
NS3354(A) Reading 3 13:50 15:40 Zandt, L. M. V. 66 W. 12th 517
NS3364(A) Reading 4: American Exp. 13:50 15:40 Patterson, C. 66 W. 12th 513
NS3365(B) Reading 4: American Exp. 13:50 15:40 Dukes, J. M. 66 W. 12th 618
NS3371(A) Reading 5: Self & Identity 13:50 15:40 Lovell, J. M. 66 W. 12th 502
NS3377(A) Reading 6: Topics in Culture 13:50 15:40 Toledo, A. P. D. 66 W. 12th 501
NS8328(B) Reading 3 13:50 15:40 Kronlund, A. R. 66 W. 12th 409
NS8394(C) Reading 4: American Exp. 13:50 15:40 Nazzaro, C. A. 79 Fifth Ave. 904
DR3407(A) Playwriting Circle 14:00 15:40 Burdette, N. M. 55 W. 13th 907
DR3715(A) Collaborative Theater Practice 14:00 16:00 Barber, S. E. 55 W. 13th 901
DR3716(B) Collaborative Theater Practice 14:00 16:00 Correia, A. 55 W. 13th 905
DR4446(A) Intermediate Directing 1 14:00 16:05 Beggs, M. W. 55 W. 13th 909
GF7045(A) Field Seminar American Pols 14:00 15:50 Plotke, D. C. 79 Fifth Ave. 611
GF7046(A) State & Market in China 14:00 15:50 Frazier, M. W. 79 Fifth Ave. 906
LC1659(AX) Fund of Western Music 14:00 15:15 Raykoff, I. 66 W. 12th 002
LC3846(A) Hip Hop 14:00 15:15 Sellers, S. J. 55 W. 13th 613
LC4639(I) Quantitative Reasoning I 14:00 15:15 Park, J. 65 W. 11th 050
MC4151(B) Keyboard 2A 14:00 14:50 Lee, C. 55 W. 13th 714
MC4236(A) Guitar Performance Class 14:00 15:40 Newman, M. 55 W. 13th 308
MC4238(A) Percussion Repertory 14:00 15:40 Gunji, M. 55 W. 13th 313
MC4423(A) Guitar Performance Class 14:00 15:40 Newman, M. 55 W. 13th 308
MC4514(A) Percussion Repertory 14:00 15:40 Gunji, M. 55 W. 13th 313
MC4531(A) Opera Workshop 1A 14:00 15:40 Taylor, T. W. 55 W. 13th 450
MC6694(B) Opera Workshop 1A 14:00 15:40 Versage, S. W. 55 W. 13th 309
MC6836(A) Advanced Schenkerian Analysis 14:00 15:40 Shapira, Y. M. 55 W. 13th 709
MC8396(C) Opera Workshop 1A 14:00 15:40 Nelson, S. C. 55 W. 13th 453
NS1597(B) French Intermediate 1 14:00 15:15 Mollien, E. 65 W. 11th 458
NS8344(F) French Intro 1 14:00 15:15 Partovi, S. 66 W. 12th 404
MC4224(A) Performance Class: Violin 14:30 15:45 Wu, N. L. 55 W. 13th 750
MC4408(A) Performance Class: Violin 14:30 15:45 Wu, N. L. 55 W. 13th 750
DR3769(A) Dance for Actors 1.1 14:45 15:59 Stowe, S. M. 55 W. 13th 109
JZ1399(A) Basic Arranging for Vocalists 15:00 15:50 Liebschutz, A. J. 55 W. 13th 645
MC8304(A) Keyboard Review for GR Stdnts 15:00 15:50 Cuckson, R. 55 W. 13th 714
MC8359(B) Fortepiano for Piano & Strings 15:20 16:59 Axinn, A. 55 W. 13th 350
MC8359(B) Fortepiano for Piano & Strings 15:20 16:59 Yang, Y. 55 W. 13th 350
LC1019(A) Teaching & Learning Seminar 15:50 17:30 Mehlman-Petrzela, N. Y. 66 W. 12th 410
LC1564(A) Media Toolkit 15:50 18:30 Beck, M. D. 55 W. 13th 803
LC2627(A) IHD - Dance and Education 15:50 17:30 Stenn, R. S. 66 W. 12th 716
LC3660(A) Matter and Materiality 15:50 17:30 Zavitsanos, C. 65 W. 11th 050
LC3867(B) Intro to Cinematography 15:50 18:30 Kaluzhsky, A. 55 W. 13th 821
LC4780(A) Experiential Anatomy 15:50 17:30 Welsh, S. 66 W. 12th 001
LC4826(A) Transmedia Skills & Craft 15:50 17:30 Grinker, L. 65 W. 11th 464
LC7142(A) From Stories to Action 15:50 17:30 Williams, J. L. 65 W. 11th 261
LC7239(X) Terminality 15:50 18:30 Farmaian, A. A. F. 79 Fifth Ave. 910
LC7314(A) Bollywood Film Music 15:50 17:30 Sankaram, K. R. 65 W. 11th 458
LC7402(A) Experiments in Documentary 15:50 18:30 Bruce, J. A. 79 Fifth Ave. 1106
LC7402(A) Experiments in Documentary 15:50 18:30 Yue, G. 79 Fifth Ave. 1106
LC7584(AX) The Art of the Critical Review 15:50 18:30 Schillinger, L. K. 79 Fifth Ave. 901
LC8054(A) Disasters in American History 15:50 17:30 Manners, J. 65 W. 11th 465
LC8345(CC) WTEI: Art and Activism 15:50 17:30 Salario, A. 66 W. 12th 513
LC8361(EE) WTEI: Revision & Reenactment 15:50 17:30 Milks, M. E. 66 W. 12th L106
LC8409(CC) FYS: Women of Color Feminism 15:50 17:30 Chism, Y. 66 W. 12th 304
NS2679(C) ESL 1700 High Intermediate 15:50 18:20 Seeno, A. 66 W. 12th 509
NS2684(D) ESL 1800 Advanced 15:50 18:20 Scott, J. 66 W. 12th 701
NS3423(B) Writing for Multilinguals 15:50 18:20 Fiore, M. S. 66 W. 12th 702
NS7709(AX) Climate Justice in Communities 15:50 18:30 Cook, E. M. 79 Fifth Ave. 911
NS8047(A) NC Young Adult Mentoring II 15:50 18:50 Rahman, S. 66 W. 12th 406
PS1155(A) Hard Materials and Finishes 15:50 18:30 Woodcock, J. 79 Fifth Ave. 706
PS1159(B) Construction 1 Draping 15:50 18:30 Wong, H. N. 79 Fifth Ave. 402
PS1223(B) Fashion Drawing 1 15:50 18:30 Szpura, B. 79 Fifth Ave. 306
PS1224(A) Core Lab Objects: CT 15:50 18:30 Harding, J. A. M. 79 Fifth Ave. 1204B
PS1311(C) Construction 1 Patternmaking 15:50 18:30 Kavalerchik, S. 79 Fifth Ave. 504
PS1331(E) Fashion IND: Design 15:50 18:30 Cesarani, S. 79 Fifth Ave. 404
PS1366(D) Fashion Textile Survey 15:50 18:30 Idacavage, S. J. 79 Fifth Ave. 1002
PS1367(A) Publication Design 15:50 18:30 Brandenburg, C. 65 W. 11th 262
PS1385(B) Fashion Digital: Kaledo 15:50 18:30 Rivieccio, D. 65 W. 11th L107
PS1455(C) Merchandising Math 15:50 18:30 Wolf, G. 79 Fifth Ave. 1003
PS1522(A) Drawing Interiors 2 15:50 18:30 Geldof, K. 79 Fifth Ave. 708
PS1554(B) Core Lab Objects: Game 15:50 18:30 Contour, J. M. 79 Fifth Ave. 502
PS1658(C) Thesis Studio 1 15:50 18:30 Silverman, E. D. 79 Fifth Ave. 1202
PS1658(C) Thesis Studio 1 15:50 18:30 Okunseinde, A. T. 79 Fifth Ave. 1202
PS1919(C) History of Photography 15:50 18:30 Lehner, A. 79 Fifth Ave. 312
PS2008(G) Thesis Studio 1 15:50 18:30 Campbell, L. 79 Fifth Ave. 1205
PS2008(G) Thesis Studio 1 15:50 18:30 Norskov, B. J. 79 Fifth Ave. 1205
PS2103(A) Professional Communication 15:50 18:30 Ramos, A. 79 Fifth Ave. 1203B
PS2103(A) Professional Communication 15:50 18:30 Shea, A. 79 Fifth Ave. 1203B
PS2557(A) Core Studio: Senior Thesis 1 15:50 18:30 Premnath, S. 25 E. 13th 503
PS2557(A) Core Studio: Senior Thesis 1 15:50 18:30 Dentz, S. 25 E. 13th 503
PS2557(A) Core Studio: Senior Thesis 1 15:50 18:30 Cucher, S. A. 25 E. 13th 503
PS2557(A) Core Studio: Senior Thesis 1 15:50 18:30 Fasnacht, H. A. 25 E. 13th 503
PS2557(A) Core Studio: Senior Thesis 1 15:50 18:30 Palileo, M. C. 25 E. 13th 503
PS2557(A) Core Studio: Senior Thesis 1 15:50 18:30 Robinson, M. A. 25 E. 13th 503
PS2557(A) Core Studio: Senior Thesis 1 15:50 18:30 Piraino, V. A. 25 E. 13th 503
PS2598(A) Motion Concepts 15:50 18:30 Jafri, S. F. H. 2 W. 13th 402
PS2613(A) Urban Colloquium 1 15:50 18:30 Fullilove, M. T. 2 W. 13th 515
PS2613(A) Urban Colloquium 1 15:50 18:30 Morrish, W. R. 2 W. 13th 515
PS2695(B) Couture Design Techniques 15:50 18:30 Henry-Turner, P. J. 2 W. 13th 516
PS2735(C03) Int Studio 1: Memory 15:50 21:30 Jacobson, J. V. 2 W. 13th 1102
PS2750(D06) Int Studio 1: Shift 15:50 21:30 Seiler, S. L. 2 W. 13th 406
PS2752(A02) Int Studio 1: Avatar 15:50 21:30 Liberman, R. 2 W. 13th 401
PS2786(D08) Int Sem 1: Shift 15:50 18:30 Irish, J. 79 Fifth Ave. 912
PS2790(B08) Int Sem 1: Fake 15:50 18:30 Chakkappan, E. M. 65 W. 11th 258
PS2804(B04) Space/Materiality: Community 15:50 18:30 Brinen, N. G. 2 W. 13th 901
PS2805(B07) Space/Materiality: Community 15:50 18:30 Rossi, S. R. 2 W. 13th 504
PS2811(A08) Space/Materiality: Body 15:50 18:30 Carter, J. P. 2 W. 13th 809
PS2813(C08) Space/Materiality: Culture 15:50 18:30 Shen, H. H. 2 W. 13th 612
PS2816(A06) Space/Materiality: Body 15:50 18:30 McNally, A. G. 2 W. 13th 500
PS2817(B03) Space/Materiality: Community 15:50 18:30 Stearns, J. M. 2 W. 13th 511
PS2820(C03) Space/Materiality: Culture 15:50 18:30 Puckett, C. 2 W. 13th 811
PS2825(B06) Space/Materiality: Community 15:50 18:30 Mendelson, S. M. 2 W. 13th 803
PS2834(C04) Drawing/Imaging: Places+Things 15:50 18:30 Klos, J. 2 W. 13th 305
PS2845(A03) Drawing/Imaging: Language 15:50 18:30 Lepson, M. A. 2 W. 13th 1013
PS2851(A06) Drawing/Imaging: Language 15:50 18:30 Glynn, T. J. M. 2 W. 13th 1104
PS2856(A12) Drawing/Imaging: Language 15:50 18:30 Hurst, M. M. 2 W. 13th 619
PS2857(B13) Drawing/Imaging: People 15:50 18:30 Sklaroff, S. 2 W. 13th 602
PS2860(B02) Time: Embodied 15:50 18:30 Pohl, B. 2 W. 13th 303
PS2864(A03) Time: Composition 15:50 18:30 Klar, E. V. 2 W. 13th 801
PS2869(C06) Time: Frame 15:50 18:30 Letven, W. A. 2 W. 13th 300
PS2873(A02) Time: Composition 15:50 18:30 LaVertu, G. 2 W. 13th 200
PS2891(M) Objects as History 15:50 18:30 Zamudio, R. 2 W. 13th 503
PS3071(C09) Time: Frame 15:50 18:30 Smolarski-Heims, C. O. 2 W. 13th 802
PS3104(A) Materiality of Fashion 15:50 17:40 Rado, M. M. 66 Fifth Ave. 818
PS3112(A08) Drawing/Imaging: Language 15:50 18:30 Mattis, D. 2 W. 13th 804
PS3124(C01) Time: Frame 15:50 18:30 Prives, S. A. 2 W. 13th 1111
PS3163(A) Intro to Fashion Studies: Lec 15:50 17:05 Kurennaya, A. S. 66 W. 12th 404
PS3175(B) Ind Proj: Design Research 15:50 18:30 Alexander, R. C. 66 Fifth Ave. 603
PS3183(C) Models, Mockups and Prototypes 15:50 21:30 Peltzer, S. 25 E. 13th 301
PS3200(L) Creative Technical Studio 1 15:50 21:30 Campbell, S. 25 E. 13th 510
PS3216(F) Design Studio 1 15:50 18:30 DaCosta, F. Y. 66 Fifth Ave. 716
PS3233(M) Visual Communication Studio 1 15:50 21:30 Musci, C. J. 66 Fifth Ave. 310
PS3234(J) Visual Communication Studio 1 15:50 21:30 Zivanic, V. 66 Fifth Ave. 508
PS3262(D) Thesis Studio 1 15:50 18:30 Zornoza, A. 79 Fifth Ave. 1206
PS3262(D) Thesis Studio 1 15:50 18:30 Sebek, A. C. 79 Fifth Ave. 1206
PS3280(E) Creative Team Dynamics 15:50 18:30 Riman, J. A. 2 W. 13th 905
PS3289(A) Media 15:50 18:30 Smolarz, E. 79 Fifth Ave. 1109
PS3290(B) Media 15:50 18:30 Diamond, S. 79 Fifth Ave. 602
PS3291(C) Media 15:50 18:30 Kfir, Z. 79 Fifth Ave. 703
PS3296(C) Information Visualization 15:50 18:30 Algones, M. 55 W. 13th 804
PS3300(A) Visualizing Urban Change 15:50 18:30 Gonzalez, C. M. H. 25 E. 13th 302
PS3500(D) Design of Business 15:50 18:30 Sanchez, D. V. S. 25 E. 13th 204
PS3608(A) Design Studio 3 15:50 18:30 Yazdanseta, A. 25 E. 13th 300
PS3672(A) Explorations in Drawing 15:50 18:30 Glancey, K. A. 66 Fifth Ave. 709
PS3746(C10) Drawing/Imaging: Places+Things 15:50 18:30 Robbins, I. 2 W. 13th 904
PS3949(C5) Thesis 1: Collection Women's 15:50 21:30 Caponera, L. B. 2 W. 13th 405
PS3949(C5) Thesis 1: Collection Women's 15:50 21:30 Meijerink, T. I. G. 2 W. 13th 405
PS3950(C6) Thesis 1: Collection Women's 15:50 21:30 Simeonova, I. 2 W. 13th 400
PS3950(C6) Thesis 1: Collection Women's 15:50 21:30 Youssef, C. K. 2 W. 13th 400
PS3968(E) Intro to Photography 15:50 18:30 Macindoe, G. D. 79 Fifth Ave. 605
PS3982(C) Business Models & Ent Strategy 15:50 18:30 Emsalem, D. 79 Fifth Ave. 205
PS3994(A) Writing for the Public Realm 15:50 17:40 Yelavich, S. A. 2 W. 13th 1011
PS4107(CL2) [LS] Int Studio 1: Memory 15:50 21:30 Polo, N. G. 2 W. 13th 1108
PS4108(CL3) [LS] Int Studio 1: Memory 15:50 21:30 Jimenez, S. E. 2 W. 13th 311
PS4115(BL1) [LS] Int Sem 1: Fake 15:50 18:30 Carter, L. I. 66 W. 12th 501
PS4122(C) Core Lab Objects: CT 15:50 18:30 Wolf, M. S. 79 Fifth Ave. 1204A
PS4386(C) Hand Knitting 1 15:50 18:30 Tsypina, T. 79 Fifth Ave. 431
PS4394(A) Shoe Construction 2 15:50 18:30 Geist, N. M. 79 Fifth Ave. 517
PS4437(B09) Drawing/Imaging: People 15:50 18:30 Waters, C. E. 79 Fifth Ave. 600
PS4842(C) Representation and Analysis 15:50 18:30 Black, V. A. 79 Fifth Ave. 701
PS5203(B) Photo Topics 15:50 18:30 Towery, T. M. 65 W. 11th 259
PS5205(E) Photo Topics 15:50 18:30 Granofsky, R. 2 W. 13th 1100
PS5322(A) Orientation 1 15:50 21:30 Tibbles, R. S. 2 W. 13th 601
PS5339(F) Accessory Design: Fashion Prod 15:50 18:30 Sternbach, A. S. 2 W. 13th 511
PS5467(A) Adv Processes: Studio Light 15:50 18:30 Spiegelman, M. B. 79 Fifth Ave. 904
PS5480(A) Adv Practice: Earth Age 15:50 18:30 Philbrick, J. 68 Fifth Ave. 100
PS5535(A) Visual Merchandising 15:50 18:30 Stiglich, B. 68 Fifth Ave. 418
PS5549(A) University Design Studio 15:50 18:30 Tenazas, L. L. 66 Fifth Ave. 600F
PS5564(A) Contempory Advertising 15:50 18:30 Arnell, S. 79 Fifth Ave. 1200B
PS6283(F) Research & Development Methods 15:50 18:30 Silva, M. O. 79 Fifth Ave. 601
PS6284(G) Creative Team Dynamics 15:50 18:30 Tysk, J. K. 79 Fifth Ave. 909
PS6578(CL6) [LS] Int Sem 1: Shift 15:50 18:30 Henderson, H. E. M. 65 W. 11th 260
PS6697(G) Strategic D+M in New Economies 15:50 18:30 Coleman, F. 65 W. 11th 263
PS6944(E) Sewing Workshop 15:50 18:30 TBA 65 W. 11th 509
PS7131(F) Thesis Studio 1 15:50 18:30 Stark, E. M. 79 Fifth Ave. 1208
PS7131(F) Thesis Studio 1 15:50 18:30 Campbell, L. 79 Fifth Ave. 1208
PS7308(A) Curating Public Narrative 15:50 18:30 Whitfield, A. 79 Fifth Ave. 600
PS7614(B) Light and Image 15:50 18:30 Grimaldi, M. A. 2 W. 13th 403
PS7759(G) Core Studio 1: Photo Practices 15:50 18:30 Ovaska, K. L. 66 Fifth Ave. 401
PS7835(C20) DS 3: Collection 15:50 21:30 Price, M. F. 2 W. 13th 704
PS7851(C10) SS 1: Collection 15:50 21:30 Kirkendall, K. S. 2 W. 13th 500
PS7862(M40) SS 1: Materiality 15:50 21:30 Webster, I. H. C. 2 W. 13th 412
PS7885(B) Introduction to Animation 15:50 18:30 Leib, G. D. 2 W. 13th L101
PS7893(C30) DS 3: Collection 15:50 21:30 Lakin, G. K. 2 W. 13th 711
PS7976(CL8) [LS] Int Studio 1: Fake 15:50 21:30 Erbacher, S. 2 W. 13th 1101
PS7979(A19) Drawing/Imaging: Language 15:50 18:30 Finkelstein, A. 2 W. 13th 703
PS7995(CL9) [LS] Int Studio 1: Fake 15:50 21:30 Tolson, E. I. 66 Fifth Ave. 710
PS8004(C12) Space/Materiality: Culture 15:50 18:30 McNulty, A. R. 2 W. 13th 503
PS8005(A17) Drawing/Imaging: Language 15:50 18:30 Lanfranco, K. M. 2 W. 13th 403
PS8010(C11) Time: Frame 15:50 18:30 Solomon, R. E. 2 W. 13th 1006
DR3067(A) Guest Artist Series 16:00 17:55 Ludwig, K. 55 W. 13th 100
GF2622(A) Research Methods 16:00 17:50 Miller, J. G. 79 Fifth Ave. 1006
GF3509(A) Creative Pub./Crit. Journalism 16:00 17:50 Baskin, J. 79 Fifth Ave. 1008
GF3509(A) Creative Pub./Crit. Journalism 16:00 17:50 Miller, J. E. 79 Fifth Ave. 1008
GF3522(A) Adult Psychopathology 16:00 17:50 Todman, M. 66 W. 12th 407
GF3673(A) Masters Thesis Seminar 16:00 17:50 Finchelstein, F. 79 Fifth Ave. 734
GF5321(A) Economics Department Seminars 16:00 17:50 Setterfield, M. A. 79 Fifth Ave. 1009
GF7008(A) Pessimism 16:00 17:50 Thacker, E. Y. 79 Fifth Ave. 902
GF7030(A) Sem:Autobiographical Memory 16:00 17:50 Hirst, W. C. 66 W. 12th 502
GF7039(A) PhD Proseminar I 16:00 17:50 Langlitz, D. N. Off Campus -
GF7052(A) Embodied Cognition 16:00 17:50 Adams, Z. 79 Fifth Ave. 1101
GF7057(A) Disability and Justice 16:00 17:50 Davis, E. M. 79 Fifth Ave. 908
GF7063(A) Sociology of Critical Theory 16:00 17:50 Buchstein, H. 66 W. 12th 713
GF7063(A) Sociology of Critical Theory 16:00 17:50 Arato, A. 66 W. 12th 713
GF7236(A) New School Histories 16:00 17:50 Larrimore, M. 79 Fifth Ave. 1200A
GF7236(A) New School Histories 16:00 17:50 Foulkes, J. L. 79 Fifth Ave. 1200A
GF7319(A) Pessimism 16:00 17:50 Thacker, E. Y. 79 Fifth Ave. 902
GF7422(A) Sociology of Critical Theory 16:00 17:50 Arato, A. 66 W. 12th 713
GF7422(A) Sociology of Critical Theory 16:00 17:50 Buchstein, H. 66 W. 12th 713
GF7830(A) Language and the Brain 16:00 17:50 Miozzo, M. 79 Fifth Ave. 1107
MC8576(G1) PQ5 468/Chamber 12 16:00 16:50 Michell, E. 55 W. 13th 302
MC8578(G1) PQ5 468/Chamber 12 16:00 16:50 Michell, E. 55 W. 13th 302
MC8589(S1) Q4 481/Chamber 25 16:00 16:50 Newman, M. 55 W. 13th 718
MC8590(T1) Q4 481/Chamber 25 16:00 16:50 Newman, M. 55 W. 13th 718
NS1593(A) Spanish Intermediate 1 16:00 17:15 Romero, I. 66 W. 12th 715
NS1738(A) Music in the Media Business 16:00 17:50 Rabinowitz, J. A. 79 Fifth Ave. 906
NS2668(A) Doc Studies Tech Lab 16:00 18:45 Maurice, S. L. 79 Fifth Ave. 609/610
NS3022(A) Thesis Workshop 16:00 17:50 Khrushcheva, N. 72 Fifth Ave. 713
NS3463(A) Digital Editing: Art&Technique 16:00 18:45 Brooke, J. 79 Fifth Ave. 607
NS3818(C) French Intro 1 16:00 17:15 Legare, G. 66 W. 12th 615
NS3859(A) Data, Archives, Infrastructure 16:00 17:50 Mattern, S. C. 79 Fifth Ave. 611
NS4741(A) Queer New York 16:00 17:50 Montez, R. 66 W. 12th 517
NS4742(A) Interaction Design 16:00 17:50 Mitchell, D. 79 Fifth Ave. 705
NS5218(A) Projects: Oral History 16:00 18:45 Snider, S. 79 Fifth Ave. 704
NS6959(A) History, Biography, Fiction 16:00 17:50 Walker, G. L. 66 W. 12th 601
NS6984(A) Food Product Business 16:00 17:50 Puskas, R. C. 66 W. 12th 618
NS7423(A) Pessimism 16:00 17:50 Thacker, E. Y. 79 Fifth Ave. 902
NS7488(A) Introductory Statistics 16:00 17:50 Kuvaldina, M. 66 Fifth Ave. 005
UL7461(L) Race, Space and Dispossession 16:00 17:15 White, M. C. 66 Fifth Ave. L104
UL8350(1) New School Histories 16:00 17:50 Larrimore, M. 79 Fifth Ave. 1200A
UL8350(1) New School Histories 16:00 17:50 Foulkes, J. L. 79 Fifth Ave. 1200A
MC6055(BI) PVY Piano Class 16:30 16:55 Hwang, L. 55 W. 13th 453
MC8582(S3) Q4 495/Chamber 39 17:00 17:50 Newman, M. 55 W. 13th 718
MC8584(S3) Q4 495/Chamber 39 17:00 17:50 Newman, M. 55 W. 13th 718
MC6123(BF) Junior TOM IV 17:05 17:55 Kopp, J. 55 W. 13th 309
MC6123(BF) Junior TOM IV 17:05 17:55 Petroj, J. 55 W. 13th 309
MC8397(BZ) First Theory II 17:05 17:55 Fayazi, T. 55 W. 13th 302
PS3165(B) Intro to Fashion Studies: Rec 17:20 18:35 Kurennaya, A. S. 55 W. 13th 617
PS3166(C) Intro to Fashion Studies: Rec 17:20 18:35 Satola, N. I. 55 W. 13th 620
PS3167(D) Intro to Fashion Studies: Rec 17:20 18:35 Norman, D. D. 55 W. 13th 622
CO8332(B) Politic&Pub. Advocacy in Arts 18:00 19:40 Israel, D. A. 55 W. 13th 302
DR4447(A) Theatre Improvisation 18:00 20:30 Murphy, J. C. 55 W. 13th 905
DR4454(A) Intermediate Acting 1: Meisner 18:00 20:30 Savage, J. E. 55 W. 13th 909
DR7479(A) Physical Storytelling 18:00 20:30 Baumwoll, R. 55 W. 13th 930
GF3521(A) Cultures of Finance 18:00 19:50 Lee, B. 79 Fifth Ave. 1104
GF3835(A) AdvDiag Test &Asmnt Adult Psyc 18:00 19:50 Twardon, A. 79 Fifth Ave. 1132
GF4792(A) Psych of Happiness&Wellbeing 18:00 19:50 Davidai, S. 79 Fifth Ave. 1006
GF7031(A) Language and Thought 18:00 19:50 Schober, M. F. 79 Fifth Ave. 1009
GF7053(A) Plato and the Sophists 18:00 19:50 Arruzza, C. 79 Fifth Ave. 1101
GF7242(A) Enlightened Exchanges 18:00 19:50 Walker, G. L. 66 W. 12th 615
GF7433(A) Sraffian Economics 18:00 19:50 Mongiovi, G. 79 Fifth Ave. 906
GF7753(A) Enlightened Exchanges 18:00 19:50 Walker, G. L. 66 W. 12th 615
JZ1084(A) Mingus Ensemble 18:00 19:50 McKee, A. G. 55 W. 13th 616
JZ1789(A) Vocal Performance 3 18:00 19:50 Liebschutz, A. J. 55 W. 13th 644
JZ3667(A) Adv.Rhythmic Concepts Ensemble 18:00 19:50 Stuart, R. J. 55 W. 13th 545
JZ4667(B) Vocal Performance 1 18:00 19:50 Taylor, M. 55 W. 13th 618
JZ7706(A) Voice as Instrument Ensemble 18:00 19:50 Hardy, J. 55 W. 13th 624
LC5281(A) Web Fundamentals 1 18:00 19:50 Ackerman, A. A. 55 W. 13th L106
LC7739(A) Urban Environmental Health 18:00 19:40 Riggs, A. R. 65 W. 11th 464
MC4079(A) Song Interpretation 18:00 19:40 Morton, G. G. 55 W. 13th 453
MC4155(A) Fundamentals of Orchestration 18:00 19:40 Palmer, R. A. 55 W. 13th 717
MC4159(A) Sound Design for Musicians 18:00 19:40 Tieghem, D. S. V. 55 W. 13th 805
MC4246(A) Arranging Ensemble 18:00 19:40 Garchik, J. 55 W. 13th 716
MC4509(A) Beyond the Stage 18:00 19:40 Norpoth, J. K. 55 W. 13th 353
MC4509(A) Beyond the Stage 18:00 19:40 Gookin, A. J. 55 W. 13th 353
MC6717(A) Contemp Classical Repertoire 18:00 19:40 Barbara, J. L. 55 W. 13th 450
NS1015(A) Media Corporate Responsibility 18:00 19:50 Oberlander, L. B. 79 Fifth Ave. 1001
NS1211(A) Introduction to Media Studies 18:00 19:50 Shaukat, U. 79 Fifth Ave. 1200A
NS1212(A) Beg. Fiction 18:00 19:50 Mesmer, S. M. 66 W. 12th 801
NS1370(A) Global Governance 18:00 19:50 Hoffman, P. 65 W. 11th 261
NS1595(A) Spanish Intensive 1 18:00 19:40 Bell, T. A. 66 W. 12th 618
NS1596(B) French Intro 1 18:00 19:15 Boulfroy, P. 65 W. 11th 465
NS1899(A) Novel Workshop 18:00 19:50 Texier, C. 79 Fifth Ave. 1618
NS2085(A) Econ Int'l Affairs Intensive 18:00 19:50 Lamoureux, D. L. 66 W. 12th 715
NS2948(A) Public Finance & Fiscal Mgmt 18:00 19:50 Chatterjee, D. 66 W. 12th L104
NS2954(A) Policy Analysis 18:00 19:50 Devlin, R. 66 Fifth Ave. 101
NS2982(A) PIA I: Project Desgin 18:00 19:50 Johnson, M. 79 Fifth Ave. 902
NS3398(A) Corp SustnbltySocialRespnsblty 18:00 19:50 Albert, J. D. 66 W. 12th 601
NS3444(B) Management Capstone 18:00 19:50 Martinez, N. L. 66 Fifth Ave. 818
NS3444(B) Management Capstone 18:00 19:50 Marc, L. A. S. 66 Fifth Ave. 818
NS3534(A) Beg Poetry Workshop 18:00 19:50 Field, M. C. 66 W. 12th 502
NS3697(A) Language Analysis:Grammar 18:00 19:50 Schmitt, T. A. 66 W. 12th 407
NS3817(B) French Intro 2 18:00 19:15 Marques, A. A. 65 W. 11th 458
NS3821(A) American Sign Language Intro 1 18:00 19:15 Mooney, J. M. 65 W. 11th 201
NS3823(B) Spanish Intro 1 18:00 19:15 Tirado, V. M. 65 W. 11th 202
NS3827(B) Spanish Intro 2 18:00 19:15 Guzman, L. 79 Fifth Ave. 734
NS3841(B) Italian Intro 1 18:00 19:15 Bertolotto, C. 65 W. 11th 050
NS3889(A) Gender and Development 18:00 19:50 Weisgrau, M. K. 66 W. 12th 602
NS3894(B) Global Flows 18:00 19:50 Schnitzler, A. C. v. 79 Fifth Ave. 1108
NS4027(A) Adv Sem in Org Change Mgmt 18:00 19:50 Lipton, M. 66 W. 12th 513
NS4028(A) Political Econ & Public Policy 18:00 19:50 Howell, D. 66 Fifth Ave. 005
NS4700(A) Gender, Culture & Media 18:00 19:50 Lin, L. C. 79 Fifth Ave. 611
NS4730(A) Basic Accounting 18:00 19:50 Tse, J. K. 66 W. 12th 518
NS4749(B) PIA I: Policy 18:00 19:50 Kallergis, A. 66 W. 12th 410
NS4774(B) Media Ethics 18:00 19:50 Moraski, L. A. 79 Fifth Ave. 705
NS4797(A) Org Change Interventions 18:00 21:50 Poonamallee, L. C. 72 Fifth Ave. 713
NS4966(B) Intro to Writing for Screen 18:00 19:50 Bang, J. J. 66 W. 12th 713
NS5133(A) Style and Effectiveness 18:00 19:50 Ross, R. 79 Fifth Ave. 1102
NS5148(A) Essay Writing: Truth & Culture 18:00 19:50 Jaffrey, Z. 66 W. 12th 306
NS5161(A) Essay Writing: Truth & Culture 18:00 19:50 Jaffrey, Z. 66 W. 12th 306
NS5219(A) Designing Methods for Media 18:00 19:50 Asaro, P. M. 79 Fifth Ave. 603
NS5266(A) Digital Equity Lab 18:00 19:50 Wiley, M. 2 W. 13th 1011
NS6989(A) Modern Political Philosophy 18:00 19:50 Struhl, K. 66 W. 12th 716
NS6997(A) Staging Race and Performance 18:00 19:50 Montez, R. 66 W. 12th 517
NS7066(A) Architecture as Intervention 18:00 19:50 Gutman, M. 2 W. 13th 1103
NS7101(A) Japanese Intensive 1 18:00 19:40 Sourial, N. 79 Fifth Ave. 1107
NS7112(A) The Global Politics of Sports 18:00 19:50 Jacobs, S. H. 79 Fifth Ave. 1008
NS7112(A) The Global Politics of Sports 18:00 19:50 Karon, A. L. 79 Fifth Ave. 1008
NS7543(A) American Culinary History 18:00 19:50 Smith, A. F. 66 W. 12th 617
NS8052(C) Italian Intro 1 18:00 19:15 Manca, G. 79 Fifth Ave. 913
NS8395(A) Novel Workshop 18:00 19:50 Texier, C. Off Campus -
CP5632(PC1) French Intensive 2 18:20 19:40 Brun-Fraisse, V. Off Campus 301
CP5633(PC1) French Intensive 3 18:20 19:40 Hedin, A. Off Campus 300
LC4825(AX) Newsroom Video Production 101 19:00 21:40 Naudziunas, J. M. Off Campus L101
NS1173(A) Cinematography and Lighting 19:00 21:45 Turner, M. E. 79 Fifth Ave. 609/610
NS1708(A) Projects: Dig Vid Edit 19:00 21:45 Didato, J. 79 Fifth Ave. 1109
NS1755(A) Media Practices: Dig Vid Prod 19:00 21:45 Frasser, O. H. 55 W. 13th 821
NS2505(D) Media Design 19:00 21:45 McCormick, B. 79 Fifth Ave. 605
NS2682(E) ESL 1700 High Intermediate 19:00 21:30 Cotero, L. S. 66 W. 12th 501
NS3750(C) Filmmaking Studio 1 19:00 21:45 Key, C. 79 Fifth Ave. 601
PS1151(B) ID Studio 1 19:00 21:40 Chan, L. 79 Fifth Ave. 706
PS1307(B) Construction 1 Sewing 19:00 21:40 Wong, H. N. 79 Fifth Ave. 516
PS1444(D) Process & Skills: Fashion Des 19:00 21:40 Dodziuk, N. 79 Fifth Ave. 303
PS1465(B) Fashion Portfolio 19:00 21:40 Cabrera, A. 79 Fifth Ave. 909
PS1536(B) Graphic Design 3 19:00 21:40 Samara, T. J. 2 W. 13th 803
PS1730(B) Process & Skills 19:00 21:40 Walter, E. 2 W. 13th 503
PS1740(C) Financial Management 19:00 21:40 Propati, D. 2 W. 13th 204
PS1905(A) Textile Design Exploration 19:00 21:40 Varlamova-O'Keefe, D. D. 2 W. 13th 902
PS1915(C) Topics: Web/Mobile Prod Design 19:00 21:40 Yu, A. 2 W. 13th 300
PS1915(C) Topics: Web/Mobile Prod Design 19:00 21:40 White, C. 2 W. 13th 300
PS2047(A) Creativity & Comp Lab 19:00 21:40 Negri, M. D. 79 Fifth Ave. 1206
PS2048(B) Creativity & Comp Lab 19:00 21:40 Cotter, A. P. 79 Fifth Ave. 1208
PS2050(A) Creative Coding: OF 19:00 21:40 Henry, T. B. 79 Fifth Ave. 403
PS2101(A) Intensive 2: Workshop 19:00 20:15 Montgomery, E. P. 79 Fifth Ave. 1203B
PS2101(A) Intensive 2: Workshop 19:00 20:15 Lidgus, S. G. 79 Fifth Ave. 1203B
PS2122(C) Marketing 2: Branding 19:00 21:40 Klein, N. L. 2 W. 13th 1100
PS2122(C) Marketing 2: Branding 19:00 21:40 Polizzi, J. 2 W. 13th 1100
PS2123(A) Marketing 3: Marketing Mgmt 19:00 21:40 Bianchi, R. L. 79 Fifth Ave. 704
PS2557(A) Core Studio: Senior Thesis 1 19:00 21:40 Robinson, M. A. 25 E. 13th 503
PS2557(A) Core Studio: Senior Thesis 1 19:00 21:40 Palileo, M. C. 25 E. 13th 503
PS2557(A) Core Studio: Senior Thesis 1 19:00 21:40 Piraino, V. A. 25 E. 13th 503
PS2557(A) Core Studio: Senior Thesis 1 19:00 21:40 Fasnacht, H. A. 25 E. 13th 503
PS2557(A) Core Studio: Senior Thesis 1 19:00 21:40 Dentz, S. 25 E. 13th 503
PS2557(A) Core Studio: Senior Thesis 1 19:00 21:40 Premnath, S. 25 E. 13th 503
PS2557(A) Core Studio: Senior Thesis 1 19:00 21:40 Cucher, S. A. 25 E. 13th 503
PS2597(C) Motion Concepts 19:00 21:40 Jafri, S. F. H. 55 W. 13th 803
PS2609(B) Sustainable Business Models 19:00 21:40 Verheem, J. B. 55 W. 13th 311
PS2615(A) Retailing 19:00 21:40 Lazarides, A. 79 Fifth Ave. 1200B
PS2723(A) Regulatory + Ethical Contexts 19:00 21:40 Swerdloff, J. E. 66 Fifth Ave. 603
PS2778(B07) Int Sem 1: Fake 19:00 21:40 Strucker, M. L. 66 Fifth Ave. 502
PS2843(B15) Drawing/Imaging: People 19:00 21:40 Vote, M. 2 W. 13th 804
PS2852(A14) Drawing/Imaging: Language 19:00 21:40 Hurst, M. M. 2 W. 13th 1104
PS2870(C07) Time: Frame 19:00 21:40 Diamond, S. 2 W. 13th 612
PS2913(A) Lighting 19:00 21:40 Sabedra, R. A. 79 Fifth Ave. 708
PS3016(A) Critical Reading & Writing 1 19:00 21:40 Donato, C. E. 79 Fifth Ave. 904
PS3052(A) Bridge: CRW 1 19:00 21:40 Zornoza, A. 79 Fifth Ave. 903
PS3092(A) First Year Workshops 19:00 21:40 TBA 2 W. 13th 703
PS3115(A11) Space/Materiality: Body 19:00 21:40 Chellberg, L. 2 W. 13th 500
PS3120(B04) Time: Embodied 19:00 21:40 Stevens, R. H. 2 W. 13th 602
PS3170(A) Process Drawing & Digital Pres 19:00 21:40 Parikh, A. K. 2 W. 13th 403
PS3174(C) Regulatory + Ethical Contexts 19:00 21:40 Marcelle, L. 2 W. 13th 205
PS3217(G) Design Studio 1 19:00 21:40 Wu, F. 66 Fifth Ave. 716
PS3271(E) Creative Computing 19:00 21:40 Portis, A. R. 79 Fifth Ave. 901
PS3272(F) Creative Computing 19:00 21:40 Kraft, R. L. 66 W. 12th 509
PS3279(D) Creative Team Dynamics 19:00 21:40 Tanabe, K. Y. 66 W. 12th 200
PS3383(D) Web Design Basics 19:00 21:40 Murhammer, F. J. 79 Fifth Ave. 703
PS3432(H) Creative Computing 19:00 21:40 Brenner, S. J. 79 Fifth Ave. 312
PS3436(E) Strategic D+M in New Economies 19:00 21:40 Fry, A. 79 Fifth Ave. 622
PS3441(F) Managing Creative Proj Teams 19:00 21:40 Mori, M. 79 Fifth Ave. 417
PS3441(F) Managing Creative Proj Teams 19:00 21:40 Zimmer, T. T. 79 Fifth Ave. 417
PS3506(D) Digital: Illustration 19:00 21:40 Simon, J. T. 55 W. 13th 804
PS3531(C) Graphic Design 3 19:00 21:40 Gouthier, J. J. 2 W. 13th 811
PS3719(A) Critical Fashion + Soc Justice 19:00 21:40 Busch, H. O. V. 2 W. 13th 402
PS3747(A05) Time: Composition 19:00 21:40 Richards, M. M. 2 W. 13th 305
PS3970(B) Web Advanced: Mobile Design 19:00 21:40 Fisher, N. 2 W. 13th 801
PS3993(A) ARS: Art & Design Practice 19:00 21:40 Chan, Y. 79 Fifth Ave. 1004
PS4120(CL4) [LS] Int Sem 1: Memory 19:00 21:40 Healey, D. M. 79 Fifth Ave. 601
PS4440(A09) Time: Composition 19:00 21:40 Whitman, M. H. 2 W. 13th 904
PS4518(J) Topics: Web/Mobile Prod Design 19:00 21:40 Lam, C. Y. 79 Fifth Ave. 912
PS4518(J) Topics: Web/Mobile Prod Design 19:00 21:40 Wang, P. Y. 79 Fifth Ave. 912
PS4578(J) Creative Computing 19:00 21:40 Churi, A. R. 79 Fifth Ave. 617
PS4579(C) Brand Concepts 19:00 21:30 Deford, S. E. 2 W. 13th 511
PS4579(C) Brand Concepts 19:00 21:30 Iadanza, P. A. 2 W. 13th 511
PS4607(C10) Space/Materiality: Culture 19:00 21:40 Ayoung, T. M. 2 W. 13th 901
PS4615(B14) Int Sem 1: Fake 19:00 21:40 Blitshteyn, M. 25 E. 13th 302
PS4620(B11) Time: Embodied 19:00 21:40 Nagbe, T. S. 25 E. 13th 619
PS4875(I) Topics: Advertising 19:00 21:40 Key, J. G. 79 Fifth Ave. 1003
PS5335(A) Accessory Design: Fashion Prod 19:00 21:40 Wilson, W. M. 79 Fifth Ave. 511
PS5548(A) Interactive Interiors 19:00 21:40 Selditz, I. 25 E. 13th 205
PS6275(K) Creative Computing 19:00 21:40 Doshi, O. P. 2 W. 13th 402
PS6289(D) Bridge: CRW 1 19:00 21:40 Nison, R. N. 79 Fifth Ave. 911
PS6580(B12) Space/Materiality: Community 19:00 21:40 Mendelson, S. M. 2 W. 13th 504
PS7120(B) Interactive/Web Design 1 19:00 21:40 Maletic, T. 79 Fifth Ave. 1106
PS7341(A) Popular Culture & Technology 19:00 21:40 Chakkappan, E. M. 79 Fifth Ave. 600
PS7579(G) Currents: Design Ethics 19:00 21:40 Lobello, C. G. 2 W. 13th 503
PS7624(A) The New Arcade 19:00 21:40 Lam, H. J. 79 Fifth Ave. 1204A
PS8016(K) Topics: Editorial Experience 19:00 21:40 Han, G. 2 W. 13th 1006
PS8017(L) Topics: Branding 19:00 21:40 Williams, L. S. 2 W. 13th 620
PS8351(B) Principles of Interior Design 19:00 21:40 Kern, L. E. 79 Fifth Ave. 701
CO8457(A) New School Chorus 19:30 21:15 Shapiro, M. L. 65 W. 11th 500
CO8457(A) New School Chorus 19:30 21:15 Brady, M. J. 65 W. 11th 500
MC4213(A) New School Chorus 19:30 21:15 Shapiro, M. L. 65 W. 11th 500
MC4213(A) New School Chorus 19:30 21:15 Brady, M. J. 65 W. 11th 500
MC5592(A) New School Chorus 19:30 21:15 Shapiro, M. L. 65 W. 11th 500
MC5592(A) New School Chorus 19:30 21:15 Brady, M. J. 65 W. 11th 500
CP7191(PC1) French Intensive 1:1 19:40 21:00 Brun-Fraisse, V. 65 W. 11th 301
GF2931(A) Hist Foundations of Pol Eco I 20:00 21:50 Santos, P. d. 79 Fifth Ave. 1101
GF3865(A) Prospectus Seminar 20:00 21:50 Adams, Z. 79 Fifth Ave. 1006
GF7266(A) Levinas and.... 20:00 21:50 Critchley, S. J. 79 Fifth Ave. 1009
JZ3666(A) Gospel Chorus 20:00 21:50 Small, C. D. 55 W. 13th 624
JZ7641(B) Vocal Performance 3 20:00 21:50 Liebschutz, A. J. 55 W. 13th 644
NS1092(A) Poetry Workshop 20:00 22:30 Polito, R. 65 W. 11th 259
NS1093(B) Poetry Workshop 20:00 22:30 Equi, E. 65 W. 11th 262
NS1096(A) Fiction Workshop 20:00 22:30 Wright, S. W. 65 W. 11th 465
NS1097(B) Fiction Workshop 20:00 22:30 Reed, J. 66 W. 12th 701
NS1098(C) Fiction Workshop 20:00 22:30 Bertino, M. 65 W. 11th 260
NS1099(D) Fiction Workshop 20:00 22:30 Jacob, M. A. 65 W. 11th 050
NS1100(E) Fiction Workshop 20:00 22:30 McGrath, P. 66 W. 12th 502
NS1107(A) Children's Writing Workshop 20:00 22:30 Weeks, S. M. 65 W. 11th 464
NS1195(C) Poetry Workshop 20:00 22:30 Sheck, L. 65 W. 11th 263
NS1368(B) Non-Fiction Workshop 20:00 22:30 Wineapple, B. 66 W. 12th 513
NS1388(A) Screenwriting 2 20:00 21:50 Morse, D. 79 Fifth Ave. 611
NS1400(B) Children's Writing Workshop 20:00 22:30 Booth, C. E. 66 W. 12th 713
NS1469(G) Fiction Workshop 20:00 22:30 Hood, A. 65 W. 11th 261
NS1470(C) Non-Fiction Workshop 20:00 22:30 Cheever, S. 66 W. 12th 410
NS2951(A) LeadershpSustainblty&EnvPolicy 20:00 21:50 Semel, H. 66 W. 12th 602
NS3598(A) Digital Storytelling 20:00 21:50 Begeal, J. 66 W. 12th 618
NS3740(A) Media Economics 20:00 21:50 Homonoff, H. B. 79 Fifth Ave. 910
NS3761(F) Fiction Workshop 20:00 22:30 Nunez, S. 66 W. 12th 518
NS6620(H) Fiction Workshop 20:00 22:30 Kleeman, A. G. 65 W. 11th 258
NS7002(A) Decolonial Thought 20:00 21:50 Guzman, L. 66 W. 12th 601
NS7274(A) Poverty, Policy, and Families 20:00 21:50 D'Onofrio, C. A. 66 W. 12th 615
NS8056(D) Non-Fiction Workshop 20:00 22:30 Radtke, K. E. 66 W. 12th 617